SCP
0 0 0 0 -0 -0 0 0 0 0 0 0 0 0 0 0 0 0 0 0 0 0 -0 -0 -0 -0 -0 0 -0 -0 -0 -0 -0 0 0 0 0 0 0 0 0 0 0 -0
0 0 0 -0 0 0 0 0 0 0 0 0 0 0 0 0 0 0 0 0 0 0 0 0 0 0 0 0 0 -0 0 0 -0 0 -0 0 0 0 0 0 0 0 0 -0
0 0 0 0 0 0 0 0 0 0 0 0 0 0 0 0 0 0 0 0 0 0 0 0 0 0 -0 -0 -0 -0 -0 0 0 0 0 0 0 0 0 0 0 0 -0 -0
0 0 0 0 0 0 0 0 0 0 0 0 0 0 0 0 0 0 0 0 0 0 0 0 0 0 0 0 0 -0 -0 -0 0 0 0 0 0 0 0 0 0 0 0 -0
0 0 0 0 0 0 0 0 0 0 0 0 0 0 0 0 0 0 0 0 0 0 0 0 0 0 0 0 0 -0 0 0 0 0 0 0 0 0 0 0 0 0 0 0
0 0 0 0 0 0 0 0 0 0 0 0 0 0 0 0 0 0 0 0 0 0 0 0 0 0 0 0 -0 -0 0 -0 0 0 0 0 0 0 0 0 0 0 0 -0
0 0 0 0 0 0 0 0 0 0 0 0 0 0 0 0 0 0 0 0 0 0 0 0 0 0 -0 0 -0 0 0 0 0 0 0 0 0 0 0 0 0 0 0 0
0 0 0 0 0 0 0 0 0 0 0 0 0 0 0 0 0 0 0 0 0 -0 -0 -0 -0 0 0 -0 0 0 0 0 0 0 0 0 0 0 0 0 0 0 0 0
0 0 0 0 0 0 0 0 0 0 0 0 0 0 0 0 0 0 0 0 0 -0 0 -0 -0 0 0 0 0 0 0 0 0 0 0 0 0 0 0 0 0 0 0 0
0 0 0 0 0 0 0 0 0 0 0 0 0 0 0 0 0 0 0 0 0 -0 -0 -0 0 0 0 0 0 0 0 0 0 0 0 0 0 0 0 0 0 0 0 0
0 0 0 0 0 0 0 0 0 0 0 0 0 0 0 0 0 0 0 0 0 -0 0 0 0 0 0 0 0 0 0 0 0 0 0 0 0 0 0 0 0 0 0 0
0 0 0 0 0 0 0 0 0 0 0 0 0 0 0 0 0 0 0 0 0 0 0 0 0 0 0 0 0 0 0 0 0 0 0 0 0 0 0 0 0 0 0 0
0 0 0 0 0 0 0 0 0 0 0 0 0 0 0 0 0 0 0 0 0 0 0 0 0 0 0 0 0 0 0 0 0 0 0 0 0 0 0 0 0 0 0 0
0 0 0 0 0 0 0 0 0 0 -0 0 0 0 0 0 0 0 0 0 0 0 0 0 0 0 0 0 0 0 0 0 0 0 0 0 0 0 0 0 0 0 0 0
0 0 0 0 0 0 0 0 0 0 0 0 0 0 0 0 0 0 0 0 0 0 0 0 0 0 0 0 0 0 0 0 0 0 0 0 0 0 0 0 0 0 0 0
-0 -0 0 0 0 0 0 0 0 0 0 0 0 0 0 0 0 0 0 0 0 0 -0 0 0 0 -0 0 0 -0 -0 0 0 0 0 0 0 0 0 0 0 0 0 0
-0 -0 -0 0 0 0 0 0 0 0 0 0 0 0 0 0 0 0 0 0 0 0 0 0 -0 0 0 0 0 -0 -0 0 0 0 0 0 0 0 0 0 0 0 0 0
-0 -0 0 0 0 0 0 0 0 0 0 0 0 0 0 0 0 0 0 0 0 0 0 0 0 0 0 0 -0 -0 0 0 0 0 0 0 0 0 0 0 0 0 -0 0
0 0 0 0 0 0 0 0 0 0 0 0 0 0 0 0 0 0 0 0 0 0 0 -0 0 -0 0 0 0 0 0 -0 -0 -0 0 0 0 0 0 0 0 -0 0 -0
0 0 0 0 0 0 0 0 0 0 0 0 0 0 0 0 0 0 0 0 0 0 0 0 -0 -0 0 0 0 0 0 0 -0 -0 0 0 0 0 0 0 0 0 0 0
0 0 0 0 0 0 0 0 0 0 0 0 0 0 0 0 0 0 0 0 0 0 0 0 0 0 0 -0 0 0 -0 -0 0 0 -0 -0 -0 0 0 0 0 0 0 0
0 0 0 0 0 0 0 0 0 0 0 0 0 0 0 0 0 0 0 0 0 0 0 0 0 -0 0 -0 -0 -0 -0 -0 -0 0 0 -0 -0 -0 -0 0 0 0 0 0
0 0 0 0 0 0 0 0 0 0 0 0 0 0 0 0 0 0 0 0 0 0 0 0 0 0 -0 -0 -0 -0 -0 -0 -0 -0 -0 0 0 0 -0 -0 0 0 0 0
0 0 0 0 0 0 0 0 0 0 0 0 0 0 0 0 0 0 0 0 0 0 0 0 0 0 0 -0 -0 -0 -0 -0 -0 -0 -0 -0 -0 -0 -0 -0 -0 -0 0 0
0 0 0 0 0 0 0 0 0 0 0 0 0 0 0 0 0 0 0 0 0 0 0 0 0 0 0 0 -0 0 -0 -0 -0 -0 -0 -0 -0 -0 -0 -0 -0 -0 -0 0
0 0 0 0 0 0 0 0 0 0 0 0 0 0 0 0 0 0 0 0 0 0 0 0 0 0 0 0 0 0 -0 -0 0 0 -0 -0 -0 -0 -0 -0 -0 -0 -0 -0
0 0 0 0 0 0 0 0 0 0 0 0 0 0 0 0 0 0 0 0 0 0 0 0 0 0 0 0 0 0 0 0 0 0 0 0 -0 -0 -0 -0 -0 -0 -0 -0
Wind_Speed_500mb
57 59 61 62 63 67 66 32 6 38 35 15 8 4 12 15 12 19 5 3 4 5 6 5 7 7 5 15 1 4 4 2 13 21 34 36 22 22 15 22 24 5 7 29
55 57 59 58 54 54 55 36 13 21 20 7 7 12 12 16 8 6 6 6 3 3 3 4 7 4 10 25 12 6 3 3 13 14 4 4 9 25 32 18 8 21 30 22
54 57 57 55 47 43 42 15 8 11 17 16 6 10 9 10 16 16 4 7 4 1 4 9 8 7 11 17 9 7 11 6 13 14 14 18 21 35 19 22 27 11 37 10
56 55 55 49 42 36 29 7 3 4 7 3 7 7 9 17 10 9 7 7 1 5 7 6 12 13 7 17 9 9 4 10 20 32 49 40 38 43 43 22 20 35 27 19
54 51 49 41 34 29 17 7 8 4 14 18 13 5 5 19 13 8 11 13 17 14 11 15 11 11 10 11 8 8 9 6 7 32 46 40 38 36 33 37 27 15 11 27
52 47 42 33 25 20 9 8 16 11 10 5 4 5 8 12 20 17 25 18 21 22 28 43 48 44 44 19 20 17 10 5 4 14 10 8 12 14 24 7 28 8 16 8
46 42 38 31 21 16 20 21 24 7 6 6 8 13 37 30 28 17 24 35 19 14 46 58 36 42 47 33 32 31 10 8 6 11 14 15 20 19 16 43 40 37 24 19
40 38 37 32 23 15 18 22 18 8 6 12 17 24 19 27 29 11 18 22 34 37 29 3 8 6 8 24 32 25 22 5 7 7 8 10 1 14 18 9 38 42 38 30
38 39 38 36 24 13 15 16 17 21 7 5 14 15 15 6 8 9 12 36 23 26 4 3 6 8 10 15 16 28 24 18 7 7 2 9 6 35 49 22 21 42 45 37
41 43 42 32 14 8 6 9 16 15 8 11 21 7 7 7 9 6 14 29 18 24 6 4 4 5 8 5 9 9 9 8 13 16 9 6 16 44 33 14 2 40 49 50
47 45 36 18 6 1 1 3 7 12 6 22 17 30 16 14 5 5 17 13 9 10 10 6 7 7 11 9 9 5 6 4 1 7 4 4 38 22 14 6 8 24 46 58
46 37 19 12 8 5 10 5 4 5 7 11 17 24 12 19 9 13 11 9 10 9 5 6 7 6 8 16 5 7 7 7 6 7 5 9 25 14 22 27 24 37 54 61
35 18 17 13 9 16 11 9 11 6 6 8 26 28 24 30 10 8 6 2 11 11 16 6 4 5 7 8 9 7 15 24 5 14 13 23 43 11 10 36 35 40 50 42
19 19 14 13 13 19 13 7 11 13 4 3 8 24 31 30 29 12 20 26 9 13 16 11 5 5 13 5 4 4 10 19 14 9 15 52 4 44 50 42 41 46 46 38
17 16 11 12 10 11 10 4 6 9 6 4 11 11 19 16 25 23 21 10 9 10 9 8 7 14 10 8 3 5 18 4 1 4 22 21 42 54 42 42 41 40 46 46
13 14 6 8 7 2 7 8 9 18 5 6 7 13 11 19 14 20 29 24 16 11 8 5 8 10 16 6 8 34 55 50 38 19 42 37 37 51 41 26 40 38 43 43
9 15 4 7 9 11 6 7 17 11 1 1 8 19 11 21 13 7 12 20 16 9 6 5 3 8 13 4 10 46 51 51 54 61 55 34 30 28 41 42 34 33 40 43
10 8 9 9 11 10 8 12 10 2 1 2 1 6 15 9 8 8 17 9 7 16 6 1 5 5 7 7 34 41 51 42 57 68 68 59 50 41 29 18 14 14 24 35
15 10 12 18 9 9 14 22 12 6 5 2 2 7 7 6 6 9 11 13 7 11 7 10 11 5 6 14 34 41 41 38 44 51 65 68 70 62 58 42 34 30 20 15
12 10 6 6 11 22 22 7 4 5 4 6 8 7 5 7 5 1 3 8 3 4 5 7 5 3 27 48 54 46 40 43 47 47 66 65 68 69 65 67 56 43 31 27
12 10 6 19 23 10 5 6 4 1 6 9 10 16 6 10 4 3 4 4 3 5 5 4 7 7 26 50 52 45 36 39 40 43 49 74 63 67 72 74 73 59 49 36
14 15 18 12 7 5 3 6 7 3 6 8 7 11 8 8 8 5 6 3 3 3 3 5 8 7 41 44 49 47 39 38 43 46 52 45 61 68 64 65 70 77 57 48
10 2 4 4 1 11 6 8 9 7 10 15 30 9 8 9 9 5 4 7 2 6 6 1 7 23 31 38 43 47 39 24 33 39 41 46 56 59 67 69 71 72 69 64
3 4 9 4 8 3 6 7 8 26 21 46 27 3 2 2 4 1 7 3 7 5 5 5 5 19 25 33 36 43 38 28 21 27 32 37 44 45 48 57 59 54 52 64
4 3 2 2 3 6 12 18 23 34 40 35 5 9 6 10 8 6 6 7 5 5 7 6 11 17 23 29 32 39 36 19 24 20 24 28 33 37 41 41 43 43 48 51
4 5 2 4 3 11 13 19 25 38 32 9 7 6 6 5 5 6 3 6 6 6 7 16 13 13 17 23 26 31 32 18 13 13 13 19 21 22 28 29 36 44 49 46
6 7 11 14 11 12 13 16 24 29 19 4 6 7 3 3 5 3 1 8 6 8 15 5 7 11 15 19 24 27 18 15 7 10 8 8 8 13 19 22 18 28 31 27
Wind_Direction_500mb
337 340 340 343 344 346 351 355 350 345 8 53 31 34 318 313 349 350 313 190 186 192 223 254 234 187 181 52 161 330 91 296 277 250 277 300 298 216 170 203 215 245 198 244
336 336 339 341 345 347 348 339 307 356 18 55 350 322 298 269 331 303 342 300 123 207 207 303 226 153 73 70 56 111 270 82 305 290 260 320 254 203 210 211 116 209 223 236
333 334 336 337 342 345 347 346 345 345 50 98 72 327 300 299 307 283 307 271 282 326 236 222 252 217 194 146 145 182 136 231 220 269 300 320 300 318 327 206 219 193 232 213
332 333 335 333 338 346 351 351 315 351 318 338 325 283 277 289 293 274 30 310 234 0 249 254 222 224 227 100 64 102 251 236 247 256 265 272 272 275 285 287 220 208 235 223
331 334 331 336 337 345 356 328 345 315 277 290 281 270 251 289 301 336 254 231 279 309 237 218 254 262 221 200 130 145 221 258 281 273 253 238 247 258 256 250 246 210 200 239
332 335 330 338 332 332 338 315 294 269 263 268 282 252 249 277 296 267 261 285 311 282 257 251 247 261 252 191 162 183 214 181 263 266 307 274 221 334 293 140 42 336 209 289
335 335 332 335 322 304 295 298 298 251 273 234 245 273 285 294 297 282 270 279 275 270 305 307 291 253 244 226 190 164 216 141 235 269 297 171 151 30 342 81 48 18 352 294
338 332 333 335 321 290 286 292 284 240 263 258 286 309 312 313 311 292 275 275 312 316 303 323 276 281 217 222 189 187 203 180 269 264 315 102 99 355 340 2 43 19 4 23
338 331 335 330 324 299 294 293 282 263 275 259 291 304 322 312 312 322 302 326 334 352 10 269 242 220 191 197 183 197 195 205 267 309 203 166 267 310 306 229 47 354 356 17
334 333 333 332 340 351 308 320 308 271 252 298 320 304 301 284 286 285 296 332 323 357 344 302 262 217 269 55 90 140 172 211 221 233 251 182 324 320 315 66 324 339 1 3
335 335 337 343 3 281 347 22 338 323 287 304 309 330 310 299 248 303 321 340 5 326 6 341 327 321 14 45 37 118 65 331 275 249 93 98 346 351 75 174 351 360 4 8
339 341 359 8 31 126 139 104 340 318 252 317 355 8 13 334 324 289 313 330 342 349 327 356 321 348 345 352 48 11 62 5 284 44 277 289 358 25 91 55 18 1 359 8
348 10 17 41 94 140 112 49 27 10 295 15 16 5 17 8 275 264 273 313 341 342 341 320 302 358 346 355 32 21 7 21 7 332 9 320 314 343 52 352 346 343 347 356
20 17 39 88 116 129 120 71 22 5 359 358 358 13 32 17 13 350 288 271 310 342 5 25 355 337 2 339 297 57 7 307 308 280 321 326 10 337 339 344 338 342 339 346
34 25 57 78 139 133 110 73 35 348 11 314 300 343 8 29 37 53 54 65 102 77 42 3 7 347 339 325 291 35 336 228 14 273 314 300 286 324 335 328 328 338 334 327
33 33 65 76 102 97 33 347 347 351 347 344 349 339 341 7 12 38 55 68 76 87 72 28 334 306 337 6 22 342 350 358 9 345 321 303 298 301 305 311 292 306 310 308
22 24 44 22 24 32 16 352 326 319 118 141 322 329 327 330 356 30 38 43 51 77 97 67 7 348 9 10 24 344 354 1 5 5 359 350 322 283 293 285 273 285 286 280
14 21 22 351 343 327 322 317 333 11 323 176 171 302 308 286 317 2 10 19 52 41 73 51 18 358 5 32 330 338 357 6 7 10 16 17 21 22 25 28 6 281 278 276
347 331 315 311 319 320 315 305 295 274 256 232 205 174 265 305 349 360 12 18 39 17 45 18 27 349 38 301 341 353 359 3 5 20 28 26 26 19 21 26 18 22 1 334
353 349 336 322 317 313 311 293 284 279 240 225 230 228 261 211 185 21 62 28 39 40 19 6 53 10 339 360 12 18 16 25 23 19 28 29 29 26 27 28 27 23 9 359
5 353 331 313 319 307 291 294 273 277 279 221 243 221 245 217 153 181 196 139 118 57 7 39 9 340 346 359 7 25 30 33 40 44 42 40 40 35 34 35 40 42 38 19
312 308 306 302 303 287 317 292 322 285 264 266 236 312 231 197 185 119 189 133 84 64 133 58 349 283 345 356 3 19 19 23 36 44 47 45 46 45 42 40 37 38 46 53
325 299 276 278 225 24 50 322 306 320 291 291 315 284 210 155 189 139 158 74 74 117 45 349 234 306 347 356 1 9 19 22 23 35 38 40 42 41 41 42 42 42 39 41
284 228 329 133 340 333 228 216 233 306 293 328 324 221 66 89 101 138 69 57 73 66 24 269 264 313 338 351 360 1 15 17 17 24 39 42 45 46 43 43 33 31 31 32
288 245 287 168 221 278 293 311 317 344 339 345 104 67 59 13 57 34 71 37 4 158 228 244 286 308 327 341 355 1 10 15 17 5 24 32 39 44 47 49 50 44 39 31
276 266 13 226 293 303 303 323 330 354 355 7 36 68 66 36 116 68 94 106 221 255 244 304 300 321 333 339 349 357 6 13 4 10 2 28 33 30 28 35 40 38 36 38
232 233 275 240 241 256 289 320 338 350 10 30 53 48 342 354 57 36 145 180 216 264 325 285 271 333 334 322 340 357 14 31 49 26 36 328 354 22 21 9 12 36 38 25
Wind_Speed_850mb
57 59 61 62 63 67 66 32 6 38 35 15 8 4 12 15 12 19 5 3 4 5 6 5 7 7 5 15 1 4 4 2 13 21 34 36 22 22 15 22 24 5 7 29
55 57 59 58 54 54 55 36 13 21 20 7 7 12 12 16 8 6 6 6 3 3 3 4 7 4 10 25 12 6 3 3 13 14 4 4 9 25 32 18 8 21 30 22
54 57 57 55 47 43 42 15 8 11 17 16 6 10 9 10 16 16 4 7 4 1 4 9 8 7 11 17 9 7 11 6 13 14 14 18 21 35 19 22 27 11 37 10
56 55 55 49 42 36 29 7 3 4 7 3 7 7 9 17 10 9 7 7 1 5 7 6 12 13 7 17 9 9 4 10 20 32 49 40 38 43 43 22 20 35 27 19
54 51 49 41 34 29 17 7 8 4 14 18 13 5 5 19 13 8 11 13 17 14 11 15 11 11 10 11 8 8 9 6 7 32 46 40 38 36 33 37 27 15 11 27
52 47 42 33 25 20 9 8 16 11 10 5 4 5 8 12 20 17 25 18 21 22 28 43 48 44 44 19 20 17 10 5 4 14 10 8 12 14 24 7 28 8 16 8
46 42 38 31 21 16 20 21 24 7 6 6 8 13 37 30 28 17 24 35 19 14 46 58 36 42 47 33 32 31 10 8 6 11 14 15 20 19 16 43 40 37 24 19
40 38 37 32 23 15 18 22 18 8 6 12 17 24 19 27 29 11 18 22 34 37 29 3 8 6 8 24 32 25 22 5 7 7 8 10 1 14 18 9 38 42 38 30
38 39 38 36 24 13 15 16 17 21 7 5 14 15 15 6 8 9 12 36 23 26 4 3 6 8 10 15 16 28 24 18 7 7 2 9 6 35 49 22 21 42 45 37
41 43 42 32 14 8 6 9 16 15 8 11 21 7 7 7 9 6 14 29 18 24 6 4 4 5 8 5 9 9 9 8 13 16 9 6 16 44 33 14 2 40 49 50
47 45 36 18 6 1 1 3 7 12 6 22 17 30 16 14 5 5 17 13 9 10 10 6 7 7 11 9 9 5 6 4 1 7 4 4 38 22 14 6 8 24 46 58
46 37 19 12 8 5 10 5 4 5 7 11 17 24 12 19 9 13 11 9 10 9 5 6 7 6 8 16 5 7 7 7 6 7 5 9 25 14 22 27 24 37 54 61
35 18 17 13 9 16 11 9 11 6 6 8 26 28 24 30 10 8 6 2 11 11 16 6 4 5 7 8 9 7 15 24 5 14 13 23 43 11 10 36 35 40 50 42
19 19 14 13 13 19 13 7 11 13 4 3 8 24 31 30 29 12 20 26 9 13 16 11 5 5 13 5 4 4 10 19 14 9 15 52 4 44 50 42 41 46 46 38
17 16 11 12 10 11 10 4 6 9 6 4 11 11 19 16 25 23 21 10 9 10 9 8 7 14 10 8 3 5 18 4 1 4 22 21 42 54 42 42 41 40 46 46
13 14 6 8 7 2 7 8 9 18 5 6 7 13 11 19 14 20 29 24 16 11 8 5 8 10 16 6 8 34 55 50 38 19 42 37 37 51 41 26 40 38 43 43
9 15 4 7 9 11 6 7 17 11 1 1 8 19 11 21 13 7 12 20 16 9 6 5 3 8 13 4 10 46 51 51 54 61 55 34 30 28 41 42 34 33 40 43
10 8 9 9 11 10 8 12 10 2 1 2 1 6 15 9 8 8 17 9 7 16 6 1 5 5 7 7 34 41 51 42 57 68 68 59 50 41 29 18 14 14 24 35
15 10 12 18 9 9 14 22 12 6 5 2 2 7 7 6 6 9 11 13 7 11 7 10 11 5 6 14 34 41 41 38 44 51 65 68 70 62 58 42 34 30 20 15
12 10 6 6 11 22 22 7 4 5 4 6 8 7 5 7 5 1 3 8 3 4 5 7 5 3 27 48 54 46 40 43 47 47 66 65 68 69 65 67 56 43 31 27
12 10 6 19 23 10 5 6 4 1 6 9 10 16 6 10 4 3 4 4 3 5 5 4 7 7 26 50 52 45 36 39 40 43 49 74 63 67 72 74 73 59 49 36
14 15 18 12 7 5 3 6 7 3 6 8 7 11 8 8 8 5 6 3 3 3 3 5 8 7 41 44 49 47 39 38 43 46 52 45 61 68 64 65 70 77 57 48
10 2 4 4 1 11 6 8 9 7 10 15 30 9 8 9 9 5 4 7 2 6 6 1 7 23 31 38 43 47 39 24 33 39 41 46 56 59 67 69 71 72 69 64
3 4 9 4 8 3 6 7 8 26 21 46 27 3 2 2 4 1 7 3 7 5 5 5 5 19 25 33 36 43 38 28 21 27 32 37 44 45 48 57 59 54 52 64
4 3 2 2 3 6 12 18 23 34 40 35 5 9 6 10 8 6 6 7 5 5 7 6 11 17 23 29 32 39 36 19 24 20 24 28 33 37 41 41 43 43 48 51
4 5 2 4 3 11 13 19 25 38 32 9 7 6 6 5 5 6 3 6 6 6 7 16 13 13 17 23 26 31 32 18 13 13 13 19 21 22 28 29 36 44 49 46
6 7 11 14 11 12 13 16 24 29 19 4 6 7 3 3 5 3 1 8 6 8 15 5 7 11 15 19 24 27 18 15 7 10 8 8 8 13 19 22 18 28 31 27
Wind_Direction_850mb
337 340 340 343 344 346 351 355 350 345 8 53 31 34 318 313 349 350 313 190 186 192 223 254 234 187 181 52 161 330 91 296 277 250 277 300 298 216 170 203 215 245 198 244
336 336 339 341 345 347 348 339 307 356 18 55 350 322 298 269 331 303 342 300 123 207 207 303 226 153 73 70 56 111 270 82 305 290 260 320 254 203 210 211 116 209 223 236
333 334 336 337 342 345 347 346 345 345 50 98 72 327 300 299 307 283 307 271 282 326 236 222 252 217 194 146 145 182 136 231 220 269 300 320 300 318 327 206 219 193 232 213
332 333 335 333 338 346 351 351 315 351 318 338 325 283 277 289 293 274 30 310 234 0 249 254 222 224 227 100 64 102 251 236 247 256 265 272 272 275 285 287 220 208 235 223
331 334 331 336 337 345 356 328 345 315 277 290 281 270 251 289 301 336 254 231 279 309 237 218 254 262 221 200 130 145 221 258 281 273 253 238 247 258 256 250 246 210 200 239
332 335 330 338 332 332 338 315 294 269 263 268 282 252 249 277 296 267 261 285 311 282 257 251 247 261 252 191 162 183 214 181 263 266 307 274 221 334 293 140 42 336 209 289
335 335 332 335 322 304 295 298 298 251 273 234 245 273 285 294 297 282 270 279 275 270 305 307 291 253 244 226 190 164 216 141 235 269 297 171 151 30 342 81 48 18 352 294
338 332 333 335 321 290 286 292 284 240 263 258 286 309 312 313 311 292 275 275 312 316 303 323 276 281 217 222 189 187 203 180 269 264 315 102 99 355 340 2 43 19 4 23
338 331 335 330 324 299 294 293 282 263 275 259 291 304 322 312 312 322 302 326 334 352 10 269 242 220 191 197 183 197 195 205 267 309 203 166 267 310 306 229 47 354 356 17
334 333 333 332 340 351 308 320 308 271 252 298 320 304 301 284 286 285 296 332 323 357 344 302 262 217 269 55 90 140 172 211 221 233 251 182 324 320 315 66 324 339 1 3
335 335 337 343 3 281 347 22 338 323 287 304 309 330 310 299 248 303 321 340 5 326 6 341 327 321 14 45 37 118 65 331 275 249 93 98 346 351 75 174 351 360 4 8
339 341 359 8 31 126 139 104 340 318 252 317 355 8 13 334 324 289 313 330 342 349 327 356 321 348 345 352 48 11 62 5 284 44 277 289 358 25 91 55 18 1 359 8
348 10 17 41 94 140 112 49 27 10 295 15 16 5 17 8 275 264 273 313 341 342 341 320 302 358 346 355 32 21 7 21 7 332 9 320 314 343 52 352 346 343 347 356
20 17 39 88 116 129 120 71 22 5 359 358 358 13 32 17 13 350 288 271 310 342 5 25 355 337 2 339 297 57 7 307 308 280 321 326 10 337 339 344 338 342 339 346
34 25 57 78 139 133 110 73 35 348 11 314 300 343 8 29 37 53 54 65 102 77 42 3 7 347 339 325 291 35 336 228 14 273 314 300 286 324 335 328 328 338 334 327
33 33 65 76 102 97 33 347 347 351 347 344 349 339 341 7 12 38 55 68 76 87 72 28 334 306 337 6 22 342 350 358 9 345 321 303 298 301 305 311 292 306 310 308
22 24 44 22 24 32 16 352 326 319 118 141 322 329 327 330 356 30 38 43 51 77 97 67 7 348 9 10 24 344 354 1 5 5 359 350 322 283 293 285 273 285 286 280
14 21 22 351 343 327 322 317 333 11 323 176 171 302 308 286 317 2 10 19 52 41 73 51 18 358 5 32 330 338 357 6 7 10 16 17 21 22 25 28 6 281 278 276
347 331 315 311 319 320 315 305 295 274 256 232 205 174 265 305 349 360 12 18 39 17 45 18 27 349 38 301 341 353 359 3 5 20 28 26 26 19 21 26 18 22 1 334
353 349 336 322 317 313 311 293 284 279 240 225 230 228 261 211 185 21 62 28 39 40 19 6 53 10 339 360 12 18 16 25 23 19 28 29 29 26 27 28 27 23 9 359
5 353 331 313 319 307 291 294 273 277 279 221 243 221 245 217 153 181 196 139 118 57 7 39 9 340 346 359 7 25 30 33 40 44 42 40 40 35 34 35 40 42 38 19
312 308 306 302 303 287 317 292 322 285 264 266 236 312 231 197 185 119 189 133 84 64 133 58 349 283 345 356 3 19 19 23 36 44 47 45 46 45 42 40 37 38 46 53
325 299 276 278 225 24 50 322 306 320 291 291 315 284 210 155 189 139 158 74 74 117 45 349 234 306 347 356 1 9 19 22 23 35 38 40 42 41 41 42 42 42 39 41
284 228 329 133 340 333 228 216 233 306 293 328 324 221 66 89 101 138 69 57 73 66 24 269 264 313 338 351 360 1 15 17 17 24 39 42 45 46 43 43 33 31 31 32
288 245 287 168 221 278 293 311 317 344 339 345 104 67 59 13 57 34 71 37 4 158 228 244 286 308 327 341 355 1 10 15 17 5 24 32 39 44 47 49 50 44 39 31
276 266 13 226 293 303 303 323 330 354 355 7 36 68 66 36 116 68 94 106 221 255 244 304 300 321 333 339 349 357 6 13 4 10 2 28 33 30 28 35 40 38 36 38
232 233 275 240 241 256 289 320 338 350 10 30 53 48 342 354 57 36 145 180 216 264 325 285 271 333 334 322 340 357 14 31 49 26 36 328 354 22 21 9 12 36 38 25